Regional Weather Roundup
Issued by NWS

Home | Current Version | Previous Version | Graphics & Text | Print | Product List | Glossary On
Versions: 1 2 3 4 5 6 7 8 9 10 11 12 13 14 15 16 17 18 19 20 21 22 23 24 25 26 27 28 29 30 31 32 33 34 35 36 37 38 39 40 41 42 43 44 45 46 47 48 49 50
000
ASUS43 KMPX 271410
RWRMN
WEATHER ROUNDUP FOR MINNESOTA
NATIONAL WEATHER SERVICE TWIN CITIES/CHANHASSEN MN
900 AM CDT THU JUL 27 2017


NOTE: "FAIR" INDICATES FEW OR NO CLOUDS BELOW 12,000 FEET WITH NO
SIGNIFICANT WEATHER AND/OR OBSTRUCTIONS TO VISIBILITY. N/A MEANS
CURRENT SKY AND/OR WEATHER CONDITIONS ARE NOT AVAILABLE.

MNZ060>063-068>070-271500-
   Twin Cities Metro

CITY           SKY/WX    TMP DP  RH WIND       PRES   REMARKS
TWIN CITIES    SUNNY     75  61  61 NE5       30.07S
ST PAUL        SUNNY     75  63  66 NE5       30.07S
CRYSTAL        SUNNY     73  59  61 N3        30.07S
BLAINE         SUNNY     73  63  68 NE3       30.08R
LAKEVILLE      SUNNY     72  63  73 NE5       30.08R
EDEN PRAIRIE   SUNNY     74  61  63 NE6       30.07R
SOUTH ST PAUL  SUNNY     74  61  65 NE3       30.07S
LAKE ELMO      FAIR      72  63  73 NE5       30.09S
$$
MNZ001>005-007-008-013>017-022>024-027-028-271500-
   Northwest Minnesota

CITY           SKY/WX    TMP DP  RH WIND       PRES   REMARKS
BEMIDJI        SUNNY     70  63  78 CALM      30.13S
HALLOCK        MOSUNNY   68  63  83 W5        30.12S
ROSEAU           N/A     66  61  82 CALM      30.13S
WARROAD        SUNNY     70  64  83 CALM      30.13R
THIEF RVR FALL CLOUDY    68  63  84 SE3       30.15R
CROOKSTON      CLOUDY    66  63  88 CALM      30.15R
FOSSTON        MOSUNNY   66  63  88 CALM      30.15S
DETROIT LAKES  SUNNY     70  61  73 NE3       30.15S
MOORHEAD       SUNNY     68  63  83 CALM      30.15R
PARK RAPIDS    SUNNY     74  61  63 VRB5      30.14R
MAHNOMEN       FAIR      68  62  83 CALM      30.15R
$$
MNZ006-009>011-018-025>026-271500-
   North Central Minnesota

CITY           SKY/WX    TMP DP  RH WIND       PRES   REMARKS
BAUDETTE       SUNNY     71  65  81 NW5       30.11R
FLAG ISLAND    SUNNY     70  61  73 NW3       30.10S
INTL FALLS     SUNNY     71  62  73 CALM      30.11R
WASKISH        PTSUNNY   70  63  78 CALM      30.12S
BIG FORK       SUNNY     70  63  78 CALM      30.12R
LONGVILLE      SUNNY     68  63  83 CALM      30.13R
GRAND RAPIDS   SUNNY     69  62  78 CALM      30.14R
CRANE LAKE     SUNNY     64  61  88 CALM      30.12S
ORR            SUNNY     68  61  77 CALM      30.09S
COOK             N/A     66  61  82 CALM      30.12R
WALKER         FAIR      67  62  83 CALM      30.13R
$$
MNZ012-019>021-037-271500-
   Northeast Minnesota

CITY           SKY/WX    TMP DP  RH WIND       PRES   REMARKS
DULUTH         SUNNY     72  63  73 CALM      30.10R
ELY            SUNNY     66  59  77 CALM      30.11R
HIBBING        SUNNY     68  62  81 CALM      30.11R
EVELETH        SUNNY     70  60  69 CALM      30.12R
DULUTH HARBOR  SUNNY     70  63  78 CALM      30.08S
TWO HARBORS    SUNNY     77  64  65 E5        30.07S
SILVER BAY     SUNNY     73  61  64 CALM      30.08R
GRAND MARAIS     N/A     67  57  70 NE9       30.09R
G MARAIS ARPRT SUNNY     68  55  64 E5        30.13R
$$
MNZ029>031-032-039>041-046>048-054>057-064-271500-
   West Central Minnesota

CITY           SKY/WX    TMP DP  RH WIND       PRES   REMARKS
FERGUS FALLS   SUNNY     72  63  73 E5        30.13R
WHEATON        SUNNY     70  63  78 NW3       30.15S
MORRIS         SUNNY     73  64  73 CALM      30.12R
ALEXANDRIA     SUNNY     72  62  71 NE5       30.15R
ELBOW LAKE     FAIR      69  63  80 E5        30.14R
WADENA         SUNNY     68  61  77 CALM      30.13S
GLENWOOD       SUNNY     72  63  73 NE6       30.14R
APPLETON       SUNNY     72  63  73 CALM      30.12R
BENSON         SUNNY     73  64  73 NE3       30.13S
ORTONVILLE     SUNNY     70  63  78 MISG      30.13S
MADISON        SUNNY     73  68  83 CALM      30.13S
WILLMAR        FAIR      73  64  73 CALM      30.13R
$$
MNZ033>034-036-042>043-049>051-058-059-271500-
   Central Minnesota

CITY           SKY/WX    TMP DP  RH WIND       PRES   REMARKS
ST CLOUD       SUNNY     72  64  76 N3        30.11R
SAUK CENTRE    FAIR      70  62  76 CALM      30.13R
PAYNESVILLE    SUNNY     71  62  74 NE3       30.12R
AITKIN         SUNNY     68  63  83 CALM      30.11R
PINE RIVER     SUNNY     70  63  78 N3        30.15S
BRAINERD       SUNNY     70  62  76 N5        30.12R
STAPLES        SUNNY     66  61  82 CALM      30.13S
LONG PRAIRIE   FAIR      66  61  82 CALM      30.14R
LITTLE FALLS   SUNNY     68  61  77 CALM      30.12R
LITCHFIELD     SUNNY     73  64  73 NE5       30.11R
BUFFALO        SUNNY     72  60  65 NE6       30.11S
MAPLE LAKE     SUNNY     73  64  75 NE5       30.11R
HUTCHINSON     MOSUNNY   74  65  73 N3        30.12R
$$
MNZ037-044-045-052-053-271500-
   East Central Minnesota

CITY           SKY/WX    TMP DP  RH WIND       PRES   REMARKS
PRINCETON      SUNNY     73  63  68 VRB3      30.10R
MORA           SUNNY     70  61  73 CALM      30.12R
CAMBRIDGE      SUNNY     72  61  68 CALM      30.08R
RUSH CITY      SUNNY     70  62  74 CALM      30.10R
MOOSE LAKE     SUNNY     70  59  68 CALM      30.09R
HINCKLEY       FAIR      70  63  78 CALM      30.10R
CLOQUET        SUNNY     72  57  60 CALM      30.10R
MCGREGOR       SUNNY     70  63  78 NW3       30.12R
$$
MNZ071>073-080-081-089-090-097-098-271500-
   Southwest Minnesota

CITY           SKY/WX    TMP DP  RH WIND       PRES   REMARKS
MONTEVIDEO     SUNNY     75  64  69 CALM      30.12S
CANBY          SUNNY     71  63  77 CALM      30.15R
MARSHALL       SUNNY     68  64  87 NW5       30.13R
REDWOOD FALLS  SUNNY     72  62  71 CALM      30.11R
OLIVIA         SUNNY     70  63  78 NE6       30.11R
PIPESTONE      SUNNY     70  63  78 E6        30.14S
WINDOM         SUNNY     72  61  68 N7        30.11S
WORTHINGTON    SUNNY     69  63  81 N6        30.13S
JACKSON        SUNNY     70  63  78 CALM      30.11S
TRACY          SUNNY     68  64  86 N3        30.13S
SLAYTON        HVY RAIN  67  49  53 N6        30.14R
$$
MNZ065>067-074>077-082>085-091>093-271500-
   South Central Minnesota

CITY           SKY/WX    TMP DP  RH WIND       PRES   REMARKS
MANKATO        SUNNY     71  63  75 NE6       30.09R
NEW ULM        SUNNY     72  63  73 NE6       30.09S
ST JAMES       SUNNY     70  64  83 N3        30.10S
FAIRMONT       SUNNY     71  65  81 N5        30.09S
GLENCOE        SUNNY     72  66  82 NE3       30.09S
FARIBAULT      SUNNY     72  64  78 N6        30.08S
OWATONNA       SUNNY     70  64  83 CALM      30.08R
WASECA         SUNNY     72  64  78 NE7       30.09S
ALBERT LEA     SUNNY     73  66  78 NE5       30.07S
$$
MNZ078>079-086>088-094>096-271500-
   Southeast Minnesota

CITY           SKY/WX    TMP DP  RH WIND       PRES   REMARKS
ROCHESTER      SUNNY     72  65  78 NE6       30.07S
RED WING       SUNNY     72  63  73 CALM      30.05S
STANTON        SUNNY     71  64  80 N5        30.06S
DODGE CENTER   SUNNY     70  64  83 N3        30.08R
WINONA         SUNNY     70  68  94 CALM      30.05F
AUSTIN         SUNNY     72  64  78 N5        30.07R
PRESTON        SUNNY     70  62  76 NE5       30.07S
$$
ABBREVIATIONS USED IN REMARKS
   TC - TEMPERATURES IN CELSIUS
  WCI - WIND CHILL INDEX
   HX - HEAT INDEX
  VSB - VISIBILITY
$$



USA.gov is the U.S. government's official web portal to all federal, state and local government web resources and services.